User: anonymous   Login
Location: Hepcat Sky Observatory
(29.9800°N, 95.6500°W)
Time: 14:57:21
(UTC-05:00)
Language:

SL-16 Debris - Orbit

View from above orbital plane
View from above orbital plane
View from above satellite
View from above satellite

Ground track
Ground track

The orbit data is extracted from the following two-line orbital elements,

1 26076U 99040E   16129.57799235 +.00009616 +00000-0 +67203-3 0  9992
2 26076 028.4387 217.9600 4565985 161.2456 350.8404 06.42079710073670
Epoch (UTC): 08 May 2016 13:52:18
Eccentricity: 0.4565985
inclination: 28.4387°
perigee height: 266 km
apogee height: 11432 km
right ascension of ascending node: 217.9600°
argument of perigee: 161.2456°
revolutions per day: 6.42079710
mean anomaly at epoch: 350.8404°
orbit number at epoch: 7367

The dashed part of the orbit path shows where the satellite is in the earth's shadow,  

DLR